Location: *
(41.0906°N, 80.5448°W)
Time: 01:37:33
(UTC+00:00)

Daily predictions for brighter satellites

Satellite Brightness Start Highest point End
(mag) Time Altitude Azimuth Time Altitude Azimuth Time Altitude Azimuth
Cosmos 1939 Rocket 4.4 00:02:14 10° SSW 00:05:47 35° W 00:09:24 10° NNW
Cosmos 923 Rocket 3.8 00:04:09 10° S 00:09:09 69° ESE 00:09:09 69° ESE
H-2A R/B 2.2 00:10:51 54° NNE 00:10:51 54° NNE 00:15:01 10° N
YAOGAN 1 4.1 00:22:49 27° NNW 00:22:49 27° NNW 00:24:53 10° NNW
NOSS 3-2 (A) 3.1 00:20:48 10° SSW 00:26:19 83° SE 00:26:19 83° SE
Cosmos 158 Rocket 4.2 00:22:29 10° SSW 00:26:32 59° SSW 00:26:32 59° SSW
Cosmos 2239 Rocket 4.4 00:24:52 10° N 00:31:03 82° W 00:37:14 10° S
Cosmos 2228 Rocket 3.9 00:28:12 10° SSW 00:32:20 49° W 00:32:20 49° W
BREEZE-M DEB (TANK) 4.4 00:30:02 10° WSW 00:31:24 21° WSW 00:31:24 21° WSW
USA 215 3.8 00:34:28 40° N 00:36:16 50° NNW 00:42:31 10° WSW
Cosmos 1680 Rocket 4.3 00:31:57 10° SSW 00:35:23 42° SSW 00:35:23 42° SSW
USA 238 DEB 3.5 00:37:17 10° SW 00:43:43 85° W 00:43:43 85° W
USA 238 3.5 00:37:23 10° SW 00:43:47 85° WSW 00:43:47 85° WSW
USA 267 3.7 01:09:12 55° NW 01:09:12 55° NW 01:14:08 10° NW
Milstar 3 Cent rocket 4.3 08:57:58 28° SSE 08:57:58 28° SSE 09:05:25 10° ESE
NOSS 3-4 (A) 4.1 09:23:18 48° NE 09:23:18 48° NE 09:27:43 10° NE
NOSS 3-4 (C) 4.1 09:23:22 48° NE 09:23:22 48° NE 09:27:51 10° NE
NOSS 3-2 (C) 4.0 09:22:38 78° N 09:23:09 82° NE 09:31:48 10° SE
CENTAUR R/B 3.1 09:23:18 72° NNW 09:24:22 84° NE 09:33:18 10° SE
Lacrosse 5 3.3 09:29:47 34° ENE 09:29:47 34° ENE 09:32:41 10° NE
SJ 16-02 3.8 09:37:06 16° NNE 09:37:06 16° NNE 09:38:04 10° NNE
Atlas Centaur 2 3.8 09:34:28 28° S 09:34:41 28° S 09:39:41 10° ESE
ADEOS 4.5 09:33:38 10° NNE 09:38:40 46° E 09:43:39 10° S
ATLAS 2AS CENTAUR R/B 3.0 09:38:11 46° SSW 09:40:56 81° ESE 09:48:52 10° NE
Cosmos 2263 Rocket 3.5 09:48:25 28° N 09:48:25 28° N 09:51:04 10° NNE
NOSS 3-2 (A) 4.4 09:51:01 48° SW 09:51:01 48° SW 09:58:28 10° S
COSMO-SKYMED 1 4.4 09:52:45 10° SE 09:56:31 30° ENE 09:59:36 14° NNE
Lacrosse 4 Rocket 1.9 10:03:37 62° ESE 10:03:37 62° ESE 10:07:24 10° SSE
FENGYUN 3A 3.5 10:00:28 10° NNE 10:05:54 86° WNW 10:11:18 10° SSW
USA 238 DEB 4.3 10:08:23 41° WSW 10:08:23 41° WSW 10:14:53 10° S
USA 238 4.3 10:08:27 41° WSW 10:08:27 41° WSW 10:15:00 10° S
Genesis I 3.9 10:09:55 49° SE 10:10:01 49° ESE 10:13:44 10° NE
CZ-4B R/B 3.9 10:11:57 10° SSE 10:12:25 13° SSE 10:12:25 13° SSE
Cosmos 1461 4.2 10:18:00 32° SSW 10:18:00 32° SSW 10:20:40 10° S
Cosmos 1603 4.1 10:18:18 44° SW 10:18:18 44° SW 10:22:55 10° S
Cosmos 1709 Rocket 4.0 10:12:44 10° SSW 10:18:58 57° W 10:25:17 10° N
Meteor 2-3 Rocket 3.6 10:13:25 10° SSW 10:19:07 77° W 10:24:56 10° N
Cosmos 2181 Rocket 3.9 10:14:04 10° N 10:20:18 90° W 10:26:26 10° S
Cosmos 1943 3.4 10:23:32 47° WSW 10:23:37 47° WSW 10:29:02 10° S
deb Chang Zheng 4 3.4 10:20:25 10° NNE 10:24:47 90° WNW 10:29:08 10° SSW
CZ-4C R/B 1.8 10:26:54 37° SW 10:28:52 77° NW 10:34:38 10° NNE
ALOS 3.5 10:24:51 10° N 10:27:10 27° NNW 10:27:10 27° NNW
BREEZE M DEB (TANK) 4.0 10:19:26 10° SW 10:32:09 57° SSE 10:35:45 10° ENE
Cosmos 990 Rocket 3.9 10:27:59 10° SSW 10:33:13 82° WNW 10:38:30 10° NNE
GPS 2-04 Rocket1 3.6 10:33:14 34° SSW 10:33:49 37° S 10:37:24 10° ESE
SL-4 R/B 3.8 10:37:22 17° N 10:37:22 17° N 10:39:44 10° NE
Cosmos 923 Rocket 3.9 10:35:15 30° NNW 10:37:49 66° WSW 10:43:05 10° S
ERS-2 2.8 10:34:57 10° S 10:37:36 39° SW 10:37:36 39° SW
PSLV R/B 4.3 10:36:33 10° SSE 10:40:38 64° ENE 10:44:43 10° N
Cosmos 1782 2.7 10:39:15 30° NNW 10:41:08 75° W 10:45:09 10° S
Cosmos 1515 Rocket 3.5 10:38:25 10° N 10:42:52 88° E 10:47:19 10° S
Cosmos 2228 Rocket 4.4 10:39:07 10° N 10:43:18 41° ENE 10:47:27 10° SSE
SKYMED 2 3.4 10:40:07 10° S 10:44:27 81° WSW 10:48:13 14° NNW
Cosmos 1151 Rocket 3.3 10:44:42 41° W 10:44:42 41° W 10:48:40 10° SSW
METEOR-M 4.3 10:40:01 10° N 10:45:09 49° WNW 10:50:15 10° SW
ATLAS 3B R/B 2.9 10:39:41 17° NNW 10:45:16 79° NE 10:52:31 10° SE
Cosmos 2074 Rocket 3.9 10:42:50 10° S 10:49:03 86° W 10:55:18 10° N
SJ-12 3.8 10:45:32 10° N 10:49:33 59° WNW 10:53:31 10° SSW
Cosmos 158 Rocket 4.1 10:50:04 28° NW 10:52:15 47° WSW 10:57:03 10° S
RESURS DK-1 2.4 10:51:31 17° SW 10:54:28 52° WNW 10:58:34 10° NNE
Meteor PRIRODA 3.5 10:52:29 10° N 10:56:13 71° WNW 10:59:55 10° SSW
ATLAS CENTAUR R/B 1.5 10:56:53 20° NNW 10:59:22 64° ENE 11:03:18 10° SE
BREEZE-M DEB 4.0 10:53:01 19° WNW 11:00:23 67° NNE 11:03:51 10° ESE
H-2A R/B 2.9 10:57:53 10° NNE 11:01:49 79° ESE 11:05:40 10° S
Meteor 1-4 Rocket 4.1 11:03:45 19° SW 11:03:45 19° SW 11:05:16 10° SSW
Cosmos 1500 Rocket 3.4 10:59:10 10° SSW 11:03:28 74° W 11:07:48 10° N
Cosmos 1844 Rocket 2.6 10:58:05 10° SSW 11:03:41 66° WNW 11:09:21 10° NNE
Cosmos 1437 Rocket 4.1 11:00:56 10° N 11:04:30 38° ENE 11:08:01 10° SE
Cosmos 1328 Rocket 4.4 11:04:11 25° WNW 11:05:25 29° W 11:09:14 10° SSW
Cosmos 1680 Rocket 3.7 11:01:32 16° NW 11:05:38 49° WSW 11:10:43 10° S
FALCON 9 DEB 4.4 11:06:04 22° NNW 11:06:04 22° NNW 11:08:40 10° NNE
FALCON 9 DEB 4.3 11:06:07 23° NNW 11:06:09 23° NNW 11:08:48 10° NNE
Cosmos 2184 Rocket 4.0 11:00:35 10° SSW 11:06:49 65° W 11:13:11 10° N
Lacrosse 5 2.9 11:09:02 22° WNW 11:11:00 28° NNW 11:15:21 10° NNE
SJ 16-02 3.2 11:14:10 14° NW 11:14:10 14° NW 11:15:30 10° NNW
CENTAUR R/B 4.2 11:10:33 18° WNW 11:14:32 25° WSW 11:21:17 10° SSW
Okean O Rocket 3.6 11:10:51 10° NNE 11:14:52 32° E 11:18:52 10° SSE
Cosmos 372 Rocket 4.1 11:10:57 10° SSW 11:16:01 76° ESE 11:21:07 10° NNE
COSMOS 2455 3.0 11:10:19 10° SSW 11:16:19 79° ESE 11:22:23 10° NNE
OAO 2 Rocket 4.3 11:12:56 14° WSW 11:16:50 39° S 11:21:34 10° ESE
EO 1 Delta rocket 3.8 11:11:40 10° S 11:16:51 73° W 11:21:29 10° NNW
Cosmos 1844 3.6 11:12:49 10° SW 11:18:18 62° WNW 11:23:51 10° NNE
SMAP 4.3 11:17:09 10° NNE 11:21:38 46° E 11:26:05 10° S
USA 234 3.5 11:15:47 10° NE 11:22:20 73° SE 11:28:51 10° SW
Atlas Centaur 2 3.6 11:17:53 10° WSW 11:23:11 27° S 11:27:32 10° SE
BREEZE-M (TANK) 4.0 11:13:10 10° SW 11:23:22 54° SSE 11:26:28 10° ENE
Sich 1 3.5 11:19:19 10° S 11:23:42 67° E 11:28:07 10° NNE
Cosmos 1689 Rocket 3.1 11:22:28 10° SSW 11:24:52 24° W 11:26:00 19° WNW
CZ-4B DEB 4.3 11:19:30 10° NNE 11:25:00 83° ESE 11:30:29 10° SSW
SJ-7 4.4 11:23:12 10° N 11:27:14 65° WNW 11:31:19 10° SSW
Cosmos 1743 Rocket 4.0 11:23:25 10° SSW 11:27:34 39° WNW 11:31:48 10° N
Meteor 2-6 Rocket 4.2 11:22:51 10° NNW 11:28:07 54° W 11:33:26 10° S
Aureole 2 Rocket 2.1 11:26:49 10° SW 11:29:11 35° WNW 11:31:33 10° N
H-2A R/B 2.3 11:26:19 10° NNE 11:30:10 86° ESE 11:34:00 10° SSW
Cosmos 2263 Rocket 4.0 11:30:10 11° NW 11:30:34 11° NW 11:31:59 10° NNW
PAYLOAD B 4.4 11:26:30 10° NNE 11:32:02 78° ESE 11:37:31 10° S
COSMO-SKYMED 1 3.7 11:29:09 10° SSW 11:32:39 24° W 11:36:11 10° NW
ATLAS 2AS CENTAUR R/B 3.8 11:25:57 10° W 11:32:46 30° NW 11:39:30 10° NNE
Cosmos 1898 Rocket 4.3 11:28:53 10° WSW 11:33:28 29° WNW 11:38:06 10° N
ATLAS 5 CENTAUR R/B 2.5 11:30:04 10° SSW 11:33:54 48° ESE 11:38:05 10° NE
Gbstr 26 Del rocket 3.0 11:33:44 14° WNW 11:36:52 54° SW 11:40:52 10° SE
BREEZE-M DEB (TANK) 3.5 11:36:44 13° WNW 11:39:06 41° N 11:44:08 10° ENE
CZ-2C R/B 3.4 11:33:48 10° SSE 11:39:10 57° ENE 11:44:26 10° N
Lacrosse 4 Rocket 3.6 11:40:22 10° W 11:41:03 10° WSW 11:41:45 10° WSW
Envisat 3.0 11:36:10 10° N 11:41:13 67° WNW 11:46:15 10° SSW
APEX 4.5 11:36:45 10° SW 11:42:37 70° WNW 11:49:32 10° NNE
CZ-4B R/B 4.3 11:39:32 10° NNW 11:42:58 22° WNW 11:46:20 10° WSW
Cosmos 1805 Rocket 3.8 11:42:22 10° SSW 11:46:40 49° W 11:51:00 10° N
YAOGAN 6 2.8 11:43:41 10° N 11:47:02 44° WNW 11:50:21 10° SSW
Cosmos 1862 4.4 11:45:06 10° SW 11:48:28 25° WNW 11:51:50 10° NNW
Cosmos 1937 Rocket 4.3 11:45:45 10° WSW 11:50:06 27° WNW 11:54:32 10° N
Nadezhda 3 Rocket 4.2 11:44:33 10° NNW 11:50:37 51° W 11:56:35 10° SSW
MOS 1 Rocket 3.8 11:46:42 10° SSW 11:51:11 42° W 11:56:00 10° NNW
Cosmos 1666 Rocket 3.6 11:49:29 10° S 11:53:47 90° E 11:58:08 10° N
Cosmos 2082 Rocket 4.0 11:49:38 10° N 11:54:26 27° NE 11:59:13 10° ESE
